TimeAKDT,TemperatureF,Dew PointF,Humidity,Sea Level PressureIn,VisibilityMPH,Wind Direction,Wind SpeedMPH,Gust SpeedMPH,PrecipitationIn,Events,Conditions,WindDirDegrees,DateUTC
12:16 AM,39.2,37.4,93,30.26,10.0,Calm,Calm,-,N/A,,Overcast,0,2012-10-04 08:16:00
12:36 AM,39.2,35.6,87,30.26,10.0,Calm,Calm,-,N/A,,Overcast,0,2012-10-04 08:36:00
12:56 AM,39.2,37.4,93,30.28,10.0,West,4.6,-,N/A,,Overcast,260,2012-10-04 08:56:00
1:16 AM,39.2,37.4,93,30.27,10.0,Calm,Calm,-,N/A,,Overcast,0,2012-10-04 09:16:00
1:36 AM,39.2,37.4,93,30.28,5.0,Calm,Calm,-,N/A,,Overcast,0,2012-10-04 09:36:00
1:56 AM,39.2,39.2,100,30.28,5.0,Calm,Calm,-,N/A,,Overcast,0,2012-10-04 09:56:00
2:16 AM,39.2,37.4,93,30.28,8.0,Calm,Calm,-,N/A,,Overcast,0,2012-10-04 10:16:00
2:36 AM,39.2,37.4,93,30.27,8.0,East,3.5,-,N/A,,Overcast,90,2012-10-04 10:36:00
2:56 AM,41.0,39.2,93,30.26,10.0,Calm,Calm,-,N/A,,Overcast,0,2012-10-04 10:56:00
3:16 AM,39.2,37.4,93,30.26,10.0,Calm,Calm,-,N/A,,Overcast,0,2012-10-04 11:16:00
3:36 AM,39.2,37.4,93,30.26,10.0,Calm,Calm,-,N/A,,Overcast,0,2012-10-04 11:36:00
3:56 AM,39.2,37.4,93,30.26,8.0,Calm,Calm,-,N/A,,Overcast,0,2012-10-04 11:56:00
4:16 AM,41.0,37.4,87,30.25,4.0,SE,4.6,-,N/A,,Overcast,130,2012-10-04 12:16:00
4:36 AM,39.2,39.2,100,30.26,8.0,Calm,Calm,-,N/A,,Overcast,0,2012-10-04 12:36:00
4:56 AM,39.2,39.2,100,30.25,7.0,Calm,Calm,-,N/A,,Overcast,0,2012-10-04 12:56:00
5:16 AM,39.2,37.4,93,30.25,7.0,Calm,Calm,-,N/A,,Overcast,0,2012-10-04 13:16:00
5:56 AM,39.2,39.2,100,30.25,7.0,Calm,Calm,-,N/A,,Overcast,0,2012-10-04 13:56:00
6:16 AM,41.0,37.4,87,30.25,7.0,Calm,Calm,-,N/A,,Overcast,0,2012-10-04 14:16:00
6:36 AM,41.0,39.2,93,30.25,7.0,Calm,Calm,-,N/A,,Overcast,0,2012-10-04 14:36:00
6:56 AM,39.2,37.4,93,30.25,7.0,Calm,Calm,-,N/A,,Overcast,0,2012-10-04 14:56:00
7:16 AM,41.0,37.4,87,30.25,7.0,Calm,Calm,-,N/A,,Overcast,0,2012-10-04 15:16:00
7:36 AM,41.0,39.2,93,30.24,7.0,East,5.8,-,N/A,,Overcast,90,2012-10-04 15:36:00
7:56 AM,41.0,37.4,87,30.23,3.0,Calm,Calm,-,N/A,,Overcast,0,2012-10-04 15:56:00
8:16 AM,41.0,39.2,93,30.23,3.0,East,4.6,-,N/A,,Overcast,90,2012-10-04 16:16:00
8:36 AM,39.2,39.2,100,30.23,3.0,Calm,Calm,-,N/A,,Overcast,0,2012-10-04 16:36:00
8:56 AM,41.0,37.4,87,30.23,3.0,Calm,Calm,-,N/A,,Overcast,0,2012-10-04 16:56:00
9:16 AM,41.0,39.2,93,30.22,3.0,Calm,Calm,-,N/A,,Overcast,0,2012-10-04 17:16:00
9:36 AM,41.0,39.2,93,30.22,3.0,Calm,Calm,-,N/A,,Overcast,0,2012-10-04 17:36:00
9:56 AM,41.0,37.4,87,30.22,1.0,Calm,Calm,-,N/A,,Overcast,0,2012-10-04 17:56:00
10:16 AM,41.0,39.2,93,30.22,1.0,Calm,Calm,-,N/A,,Overcast,0,2012-10-04 18:16:00
10:36 AM,42.8,39.2,87,30.23,1.0,Calm,Calm,-,N/A,,Overcast,0,2012-10-04 18:36:00
10:56 AM,42.8,37.4,81,30.23,1.0,Calm,Calm,-,N/A,,Overcast,0,2012-10-04 18:56:00
11:16 AM,42.8,39.2,87,30.23,1.0,Calm,Calm,-,N/A,,Overcast,0,2012-10-04 19:16:00
11:36 AM,42.8,41.0,93,30.22,1.0,Calm,Calm,-,N/A,,Overcast,0,2012-10-04 19:36:00
11:56 AM,42.8,41.0,93,30.23,4.0,SSW,4.6,-,N/A,,Overcast,200,2012-10-04 19:56:00
12:16 PM,42.8,41.0,93,30.21,4.0,Calm,Calm,-,N/A,,Overcast,0,2012-10-04 20:16:00
12:36 PM,44.6,42.8,93,30.20,4.0,Calm,Calm,-,N/A,,Overcast,0,2012-10-04 20:36:00
12:56 PM,44.6,42.8,93,30.20,5.0,Calm,Calm,-,N/A,,Overcast,0,2012-10-04 20:56:00
1:16 PM,44.6,42.8,93,30.21,5.0,SW,3.5,-,N/A,,Overcast,230,2012-10-04 21:16:00
1:36 PM,44.6,41.0,87,30.20,5.0,Calm,Calm,-,N/A,,Overcast,0,2012-10-04 21:36:00
1:56 PM,44.6,42.8,93,30.22,1.0,WSW,5.8,-,N/A,,Overcast,240,2012-10-04 21:56:00
2:16 PM,42.8,41.0,93,30.22,1.0,WSW,4.6,-,N/A,,Overcast,240,2012-10-04 22:16:00
2:36 PM,44.6,41.0,87,30.22,1.0,Calm,Calm,-,N/A,,Overcast,0,2012-10-04 22:36:00
2:56 PM,44.6,39.2,81,30.22,1.0,Calm,Calm,-,N/A,,Overcast,0,2012-10-04 22:56:00
3:16 PM,44.6,42.8,93,30.22,1.5,Calm,Calm,-,N/A,,Overcast,0,2012-10-04 23:16:00
3:36 PM,44.6,42.8,93,30.23,1.5,Calm,Calm,-,N/A,,Overcast,0,2012-10-04 23:36:00
3:56 PM,44.6,42.8,93,30.22,1.5,Calm,Calm,-,N/A,,Overcast,0,2012-10-04 23:56:00
4:16 PM,44.6,42.8,93,30.22,1.5,Calm,Calm,-,N/A,,Overcast,0,2012-10-05 00:16:00
4:36 PM,44.6,42.8,93,30.22,1.5,Calm,Calm,-,N/A,,Overcast,0,2012-10-05 00:36:00
4:56 PM,44.6,42.8,93,30.23,1.0,WSW,3.5,-,N/A,,Overcast,250,2012-10-05 00:56:00
5:16 PM,44.6,41.0,87,30.22,1.0,Calm,Calm,-,N/A,,Overcast,0,2012-10-05 01:16:00
5:36 PM,44.6,41.0,87,30.22,1.0,Calm,Calm,-,N/A,,Overcast,0,2012-10-05 01:36:00
5:56 PM,44.6,42.8,93,30.22,1.5,Calm,Calm,-,N/A,,Overcast,0,2012-10-05 01:56:00
6:05 PM,44.6,42.8,93,30.22,2.5,Calm,Calm,-,N/A,Rain,Light Rain,0,2012-10-05 02:05:00
6:16 PM,44.6,42.8,93,30.22,2.5,Calm,Calm,-,N/A,,Overcast,0,2012-10-05 02:16:00
6:36 PM,44.6,42.8,93,30.22,2.5,Calm,Calm,-,N/A,,Overcast,0,2012-10-05 02:36:00
6:56 PM,44.6,41.0,87,30.24,1.0,Calm,Calm,-,N/A,,Overcast,0,2012-10-05 02:56:00
7:09 PM,44.6,42.8,93,30.25,1.5,Calm,Calm,-,N/A,Rain,Light Rain,0,2012-10-05 03:09:00
7:16 PM,44.6,42.8,93,30.25,1.5,Calm,Calm,-,N/A,,Overcast,0,2012-10-05 03:16:00
7:36 PM,44.6,41.0,87,30.25,1.5,Calm,Calm,-,N/A,,Overcast,0,2012-10-05 03:36:00
7:56 PM,44.6,42.8,93,30.25,3.0,Calm,Calm,-,N/A,,Overcast,0,2012-10-05 03:56:00
8:16 PM,44.6,42.8,93,30.26,3.0,Calm,Calm,-,N/A,,Overcast,0,2012-10-05 04:16:00
8:36 PM,44.6,42.8,93,30.26,3.0,East,4.6,-,N/A,,Overcast,100,2012-10-05 04:36:00
8:56 PM,44.6,42.8,93,30.26,3.0,Calm,Calm,-,N/A,,Overcast,0,2012-10-05 04:56:00
9:16 PM,44.6,41.0,87,30.27,3.0,East,3.5,-,N/A,,Overcast,100,2012-10-05 05:16:00
9:36 PM,42.8,42.8,100,30.27,3.0,Calm,Calm,-,N/A,,Overcast,0,2012-10-05 05:36:00
9:56 PM,44.6,42.8,93,30.28,5.0,Calm,Calm,-,N/A,,Overcast,0,2012-10-05 05:56:00
10:16 PM,44.6,42.8,93,30.28,6.0,Calm,Calm,-,N/A,,Overcast,0,2012-10-05 06:16:00
10:36 PM,44.6,42.8,93,30.29,9.0,Calm,Calm,-,N/A,,Mostly Cloudy,0,2012-10-05 06:36:00
10:56 PM,44.6,42.8,93,30.29,8.0,Calm,Calm,-,N/A,,Overcast,0,2012-10-05 06:56:00
11:16 PM,44.6,39.2,81,30.31,10.0,Calm,Calm,-,N/A,,Overcast,0,2012-10-05 07:16:00
11:36 PM,44.6,42.8,93,30.30,9.0,Calm,Calm,-,N/A,,Overcast,0,2012-10-05 07:36:00
11:56 PM,44.6,42.8,93,30.31,5.0,Calm,Calm,-,N/A,,Overcast,0,2012-10-05 07:56:00